• In Deutschland
  • Länderverzeichnis
  • Für 7 Tage
  • Wassertemperatur
  • Satellitenkarten
  • Wetterkarte
  • Widgets
  • user-avatar
    Anmelden

    Stündliche Wetter Donaueschingen

    Heute, 13 Dezember, Mittwoch

    Zeit Temperatur Niederschläge Wind Luftdruck Luftfeuchtigkeit
    00:00 -5°C° 0 mm 2 m/S 702 mmHg 93%
    01:00 -5°C° 0 mm 2 m/S 702 mmHg 93%
    02:00 -5°C° 0 mm 2 m/S 702 mmHg 92%
    03:00 -5°C° 0 mm 2 m/S 702 mmHg 91%
    04:00 -5°C° 0 mm 2 m/S 702 mmHg 90%
    05:00 -5°C° 0 mm 2 m/S 702 mmHg 89%
    06:00 -5°C° 0 mm 2 m/S 702 mmHg 87%
    07:00 -5°C° 0 mm 2 m/S 702 mmHg 85%
    08:00 -5°C° 0 mm 3 m/S 701 mmHg 80%
    09:00 -5°C° 0 mm 3 m/S 701 mmHg 76%
    10:00 -4°C° 0 mm 3 m/S 701 mmHg 71%
    11:00 -3°C° 0 mm 4 m/S 700 mmHg 68%
    12:00 -1°C° 0 mm 4 m/S 699 mmHg 64%
    13:00 0°C° 0 mm 5 m/S 698 mmHg 60%
    14:00 0°C° 0,1 mm 4 m/S 697 mmHg 63%
    15:00 -1°C° 0,1 mm 4 m/S 697 mmHg 65%
    16:00 0°C° 0,1 mm 3 m/S 696 mmHg 68%
    17:00 0°C° 0,5 mm 4 m/S 696 mmHg 72%
    18:00 0°C° 0,5 mm 5 m/S 696 mmHg 76%
    19:00 -1°C° 0,5 mm 6 m/S 695 mmHg 80%
    20:00 0°C° 0,3 mm 5 m/S 695 mmHg 81%
    21:00 0°C° 0,3 mm 5 m/S 694 mmHg 83%
    22:00 +1°C° 0,3 mm 5 m/S 693 mmHg 84%
    23:00 +1°C° 1,2 mm 6 m/S 692 mmHg 85%

    Morgen, 14 Dezember, Donnerstag

    Zeit Temperatur Niederschläge Wind Luftdruck Luftfeuchtigkeit
    00:00 +1°C° 1,2 mm 6 m/S 692 mmHg 87%
    01:00 +2°C° 1,2 mm 6 m/S 691 mmHg 88%
    02:00 +2°C° 0,7 mm 7 m/S 691 mmHg 87%
    03:00 +2°C° 0,7 mm 7 m/S 692 mmHg 86%
    04:00 +2°C° 0,7 mm 8 m/S 692 mmHg 86%
    05:00 +1°C° 0,5 mm 8 m/S 693 mmHg 85%
    06:00 0°C° 0,5 mm 8 m/S 693 mmHg 84%
    07:00 0°C° 0,5 mm 8 m/S 694 mmHg 84%
    08:00 -1°C° 0,3 mm 7 m/S 694 mmHg 84%
    09:00 -1°C° 0,3 mm 6 m/S 694 mmHg 84%
    10:00 0°C° 0,3 mm 5 m/S 694 mmHg 84%
    11:00 0°C° 0,4 mm 5 m/S 694 mmHg 84%
    12:00 +1°C° 0,4 mm 5 m/S 693 mmHg 84%
    13:00 +1°C° 0,4 mm 5 m/S 693 mmHg 85%
    14:00 +1°C° 0,6 mm 5 m/S 692 mmHg 86%
    15:00 +1°C° 0,6 mm 4 m/S 692 mmHg 88%
    16:00 +1°C° 0,6 mm 4 m/S 691 mmHg 90%
    17:00 +1°C° 1,2 mm 4 m/S 690 mmHg 88%
    18:00 +1°C° 1,2 mm 5 m/S 690 mmHg 86%
    19:00 +1°C° 1,2 mm 6 m/S 689 mmHg 84%
    20:00 +1°C° 1,7 mm 6 m/S 688 mmHg 83%
    21:00 +1°C° 1,7 mm 6 m/S 688 mmHg 82%
    22:00 +1°C° 1,7 mm 6 m/S 687 mmHg 82%
    23:00 +1°C° 2,7 mm 6 m/S 687 mmHg 84%

    übermorgen, 15 Dezember, Freitag

    Zeit Temperatur Niederschläge Wind Luftdruck Luftfeuchtigkeit
    00:00 +1°C° 2,7 mm 6 m/S 687 mmHg 86%
    01:00 +1°C° 2,7 mm 6 m/S 686 mmHg 88%
    02:00 -1°C° 1,6 mm 6 m/S 687 mmHg 86%
    03:00 -2°C° 1,6 mm 6 m/S 688 mmHg 85%
    04:00 -3°C° 1,6 mm 6 m/S 688 mmHg 83%
    05:00 -2°C° 0,1 mm 5 m/S 689 mmHg 85%
    06:00 -2°C° 0,1 mm 4 m/S 690 mmHg 87%
    07:00 -3°C° 0,1 mm 4 m/S 691 mmHg 88%
    08:00 -2°C° 0 mm 4 m/S 691 mmHg 87%
    09:00 -2°C° 0 mm 4 m/S 691 mmHg 86%
    10:00 -2°C° 0 mm 4 m/S 691 mmHg 85%
    11:00 -1°C° 0 mm 5 m/S 691 mmHg 82%
    12:00 -1°C° 0 mm 5 m/S 691 mmHg 79%
    13:00 -1°C° 0 mm 6 m/S 691 mmHg 76%
    14:00 0°C° 0,2 mm 5 m/S 691 mmHg 79%
    15:00 -1°C° 0,2 mm 5 m/S 690 mmHg 81%
    16:00 -1°C° 0,2 mm 5 m/S 690 mmHg 84%
    17:00 -1°C° 0,1 mm 5 m/S 691 mmHg 85%
    18:00 -2°C° 0,1 mm 4 m/S 691 mmHg 86%
    19:00 -2°C° 0,1 mm 4 m/S 691 mmHg 87%
    20:00 -2°C° 0,3 mm 4 m/S 692 mmHg 87%
    21:00 -2°C° 0,3 mm 4 m/S 692 mmHg 87%
    22:00 -2°C° 0,3 mm 4 m/S 692 mmHg 87%
    23:00 -2°C° 0,4 mm 4 m/S 693 mmHg 89%

    16 Dezember, Samstag

    Zeit Temperatur Niederschläge Wind Luftdruck Luftfeuchtigkeit
    00:00 -2°C° 0,4 mm 4 m/S 693 mmHg 90%
    01:00 -2°C° 0,4 mm 4 m/S 693 mmHg 91%
    02:00 -2°C° 0,2 mm 4 m/S 694 mmHg 91%
    03:00 -2°C° 0,2 mm 4 m/S 694 mmHg 92%
    04:00 -1°C° 0,2 mm 3 m/S 695 mmHg 92%
    05:00 -2°C° 0,1 mm 3 m/S 695 mmHg 92%
    06:00 -2°C° 0,1 mm 3 m/S 696 mmHg 93%
    07:00 -4°C° 0,1 mm 3 m/S 696 mmHg 93%
    08:00 -2°C° 0,1 mm 3 m/S 697 mmHg 92%
    09:00 -2°C° 0,1 mm 3 m/S 698 mmHg 91%
    10:00 -2°C° 0,1 mm 3 m/S 698 mmHg 90%
    11:00 -1°C° 0,3 mm 3 m/S 698 mmHg 90%
    12:00 -1°C° 0,3 mm 3 m/S 699 mmHg 90%
    13:00 -1°C° 0,3 mm 3 m/S 699 mmHg 90%
    14:00 -1°C° 0,3 mm 3 m/S 699 mmHg 90%
    15:00 -1°C° 0,3 mm 3 m/S 699 mmHg 89%
    16:00 -2°C° 0,3 mm 2 m/S 700 mmHg 89%
    17:00 -2°C° 0,1 mm 2 m/S 700 mmHg 90%
    18:00 -3°C° 0,1 mm 2 m/S 701 mmHg 91%
    19:00 -3°C° 0,1 mm 2 m/S 701 mmHg 92%
    20:00 -2°C° 0 mm 1 m/S 701 mmHg 93%
    21:00 -2°C° 0 mm 1 m/S 702 mmHg 93%
    22:00 -3°C° 0 mm 1 m/S 702 mmHg 93%
    23:00 -3°C° 0,1 mm 1 m/S 703 mmHg 93%

    17 Dezember, Sonntag

    Zeit Temperatur Niederschläge Wind Luftdruck Luftfeuchtigkeit
    00:00 -3°C° 0,1 mm 1 m/S 703 mmHg 93%
    01:00 -3°C° 0,1 mm 1 m/S 703 mmHg 93%
    02:00 -3°C° 0,1 mm 1 m/S 704 mmHg 94%
    03:00 -3°C° 0,1 mm 1 m/S 704 mmHg 94%
    04:00 -3°C° 0,1 mm 1 m/S 704 mmHg 94%
    05:00 -4°C° 0,1 mm 1 m/S 705 mmHg 94%
    06:00 -4°C° 0,1 mm 1 m/S 705 mmHg 94%
    07:00 -4°C° 0,1 mm 1 m/S 706 mmHg 94%
    08:00 -3°C° 0,1 mm 1 m/S 706 mmHg 93%
    09:00 -3°C° 0,1 mm 1 m/S 707 mmHg 91%
    10:00 -4°C° 0,1 mm 2 m/S 707 mmHg 90%
    11:00 -3°C° 0,1 mm 2 m/S 707 mmHg 89%
    12:00 -3°C° 0,1 mm 2 m/S 707 mmHg 87%
    13:00 -2°C° 0,1 mm 2 m/S 708 mmHg 86%
    14:00 0°C° 0,1 mm 1 m/S 708 mmHg 87%
    15:00 -1°C° 0,1 mm 1 m/S 708 mmHg 89%
    16:00 -1°C° 0,1 mm 1 m/S 708 mmHg 90%
    17:00 -2°C° 0 mm 1 m/S 709 mmHg 91%
    18:00 -4°C° 0 mm 0 m/S 709 mmHg 92%
    19:00 -5°C° 0 mm 0 m/S 710 mmHg 94%
    20:00 -5°C° 0 mm 0 m/S 710 mmHg 93%
    21:00 -5°C° 0 mm 0 m/S 711 mmHg 93%
    22:00 -6°C° 0 mm 0 m/S 711 mmHg 93%
    23:00 -6°C° 0 mm 0 m/S 711 mmHg 93%

    18 Dezember, Montag

    Zeit Temperatur Niederschläge Wind Luftdruck Luftfeuchtigkeit
    00:00 -6°C° 0 mm 0 m/S 711 mmHg 93%
    01:00 -6°C° 0 mm 0 m/S 711 mmHg 92%
    02:00 -6°C° 0 mm 0 m/S 711 mmHg 92%
    03:00 -6°C° 0 mm 1 m/S 711 mmHg 92%
    04:00 -7°C° 0 mm 1 m/S 711 mmHg 92%
    05:00 -7°C° 0 mm 1 m/S 711 mmHg 92%
    06:00 -7°C° 0 mm 1 m/S 711 mmHg 92%
    07:00 -7°C° 0 mm 1 m/S 711 mmHg 91%
    08:00 -6°C° 0 mm 1 m/S 711 mmHg 90%
    09:00 -4°C° 0 mm 1 m/S 712 mmHg 88%
    10:00 -3°C° 0 mm 1 m/S 712 mmHg 86%
    11:00 -2°C° 0 mm 1 m/S 711 mmHg 84%
    12:00 -4°C° 0 mm 2 m/S 711 mmHg 81%
    13:00 -3°C° 0 mm 2 m/S 710 mmHg 79%
    14:00 -3°C° 0 mm 2 m/S 710 mmHg 81%
    15:00 -3°C° 0 mm 2 m/S 709 mmHg 82%
    16:00 -3°C° 0 mm 2 m/S 709 mmHg 84%
    17:00 -3°C° 0,4 mm 2 m/S 709 mmHg 86%
    18:00 -4°C° 0,4 mm 2 m/S 709 mmHg 88%
    19:00 -5°C° 0,4 mm 3 m/S 709 mmHg 91%
    20:00 -5°C° 0,6 mm 3 m/S 709 mmHg 91%
    21:00 -4°C° 0,6 mm 3 m/S 709 mmHg 92%
    22:00 -4°C° 0,6 mm 3 m/S 709 mmHg 93%
    23:00 -4°C° 0,2 mm 3 m/S 708 mmHg 93%
    Mehr zeigen